Home   Weather   Bad Oeynhausen   Past weeks

Flag for Germany Past Weather in Bad Oeynhausen, North Rhine-Westphalia, Germany — Yesterday and Last 2 Weeks

Now
68 °F

Mild.


Feels Like: 68 °F
Forecast: 54 / 68 °F
Wind: 14 mph from South

Location: Bueckeburg

Current Time: Sep 25, 2016 at 12:48:40 PM

Latest Report: Sep 25, 2016 at 11:20 AM


Visibility: 4 mi

Pressure: 30.07 "Hg

Humidity: 53%

Dew Point: 50 °F

Location of Bad OeynhausenLocation

Past Weather in Bad Oeynhausen — Graph

°F

Bad Oeynhausen Temperature Yesterday

Maximum temperature yesterday: 73 °F (at 4:20 PM)
Minimum temperature yesterday: 50 °F (at 1:20 AM)
Average temperature yesterday: 60 °F

High & Low Weather Summary for the Past Weeks

 TemperatureHumidityPressure
High91 °F (Sep 13, 3:20 PM)100% (Sep 17, 12:20 PM)30.30 "Hg (Sep 17, 12:20 PM)
Low46 °F (Sep 19, 5:20 AM)26% (Sep 13, 4:20 PM)29.86 "Hg (Sep 15, 4:20 PM)
Average65 °F67%30.05 "Hg
* Reported Sep 10 11:20 AM — Sep 25 11:20 AM, Bad Oeynhausen, Weather by CustomWeather, © 2016

Note: Actual official high and low records may vary slightly from our data, if they occured in-between our weather recording intervals... More about our weather records

Advertising

Bad Oeynhausen Weather History for the Previous 24 Hours

Scroll right to see more
 ConditionsComfort  
Time TempWeatherWind HumidityBarometerVisibility
11:20 AM
Sun, Sep 25
68 °FMild.14 mph53%30.07 "Hg4 mi
10:20 AM64 °FMild.12 mph60%30.07 "Hg4 mi
9:20 AM63 °FMild.13 mph64%30.09 "Hg4 mi
8:20 AM59 °FCool.12 mph68%30.09 "Hg4 mi
7:20 AM55 °FCool.9 mph77%30.09 "Hg4 mi
6:20 AM55 °FCool.8 mph77%30.09 "Hg4 mi
5:20 AM55 °FCool.8 mph77%30.12 "Hg4 mi
4:20 AM57 °FCool.7 mph72%30.12 "Hg4 mi
3:20 AM55 °FCool.7 mph77%30.12 "Hg4 mi
2:20 AM59 °FCool.7 mph68%30.15 "Hg4 mi
1:20 AM59 °FCool.7 mph68%30.15 "Hg4 mi
12:20 AM59 °FCool.8 mph72%30.15 "Hg4 mi
11:20 PM
Sat, Sep 24
59 °FCool.6 mph68%30.18 "Hg4 mi
10:20 PM59 °FCool.5 mph68%30.18 "Hg4 mi
9:20 PM59 °FCool.5 mph72%30.18 "Hg4 mi
8:20 PM63 °FMild.5 mph64%30.18 "Hg4 mi
7:20 PM66 °FMild.3 mph56%30.18 "Hg5 mi
6:20 PM72 °FMild.5 mph44%30.18 "Hg5 mi
5:20 PM72 °FPartly sunny.3 mph44%30.18 "HgN/A
4:20 PM73 °FScattered clouds.8 mph41%30.21 "HgN/A
3:20 PM72 °FPassing clouds.8 mph44%30.21 "HgN/A
2:20 PM70 °FPassing clouds.8 mph50%30.24 "HgN/A
1:20 PM70 °FPassing clouds.8 mph50%30.24 "HgN/A
12:20 PM68 °FScattered clouds.10 mph49%30.27 "HgN/A
Weather by CustomWeather, © 2016

See weather overviewHow to use our weather pages